When you browse on this site, cookies collect data to enhance your experience and personalize the content and advertising you see.
Visit our Privacy Policy to learn more. By continuing to use the site, you agree to this use of cookies and data.
  • In Deutschland
  • Länderverzeichnis
  • Für 7 Tage
  • Wassertemperatur
  • Wetterkarte
  • Widgets
  • user-avatar
    Anmelden

    Stündliche Wetter Carlisle

    Heute, 8 Dezember, Sonntag

    Zeit Temperatur Niederschläge Wind Luftdruck Luftfeuchtigkeit
    00:00 +9°C° 2.6 mm 13 m/S 738 mmHg 93%
    01:00 +8°C° 0.6 mm 12 m/S 738 mmHg 88%
    02:00 +7°C° 0.6 mm 11 m/S 738 mmHg 83%
    03:00 +6°C° 0.6 mm 10 m/S 738 mmHg 79%
    04:00 +6°C° 0.2 mm 10 m/S 738 mmHg 79%
    05:00 +5°C° 0.2 mm 10 m/S 739 mmHg 79%
    06:00 +5°C° 0.2 mm 10 m/S 739 mmHg 79%
    07:00 +5°C° 0.3 mm 10 m/S 739 mmHg 79%
    08:00 +3°C° 0.3 mm 10 m/S 739 mmHg 78%
    09:00 +3°C° 0.3 mm 11 m/S 738 mmHg 78%
    10:00 +3°C° 0.4 mm 11 m/S 738 mmHg 77%
    11:00 +3°C° 0.4 mm 11 m/S 738 mmHg 76%
    12:00 +4°C° 0.4 mm 12 m/S 737 mmHg 76%
    13:00 +3°C° 0.3 mm 11 m/S 737 mmHg 76%
    14:00 +3°C° 0.3 mm 11 m/S 736 mmHg 77%
    15:00 +3°C° 0.3 mm 11 m/S 735 mmHg 77%
    16:00 +3°C° 0.3 mm 11 m/S 735 mmHg 78%
    17:00 +3°C° 0.3 mm 10 m/S 734 mmHg 78%
    18:00 +3°C° 0.3 mm 9 m/S 733 mmHg 78%
    19:00 +4°C° 0.5 mm 8 m/S 732 mmHg 83%
    20:00 +4°C° 0.5 mm 7 m/S 731 mmHg 88%
    21:00 +3°C° 0.5 mm 7 m/S 731 mmHg 93%
    22:00 +3°C° 0.1 mm 6 m/S 731 mmHg 92%
    23:00 +3°C° 0.1 mm 6 m/S 731 mmHg 91%

    Morgen, 9 Dezember, Montag

    Zeit Temperatur Niederschläge Wind Luftdruck Luftfeuchtigkeit
    00:00 +3°C° 0.1 mm 6 m/S 732 mmHg 91%
    01:00 +4°C° 0.1 mm 8 m/S 734 mmHg 87%
    02:00 +3°C° 0.1 mm 11 m/S 735 mmHg 83%
    03:00 +4°C° 0.1 mm 13 m/S 737 mmHg 80%
    04:00 +3°C° 0.1 mm 12 m/S 740 mmHg 78%
    05:00 +3°C° 0.1 mm 10 m/S 743 mmHg 76%
    06:00 +2°C° 0.1 mm 9 m/S 747 mmHg 74%
    07:00 +1°C° 0 mm 8 m/S 749 mmHg 75%
    08:00 +2°C° 0 mm 7 m/S 751 mmHg 75%
    09:00 0°C° 0 mm 7 m/S 753 mmHg 75%
    10:00 +2°C° 0 mm 6 m/S 754 mmHg 73%
    11:00 +2°C° 0 mm 6 m/S 755 mmHg 70%
    12:00 +3°C° 0 mm 6 m/S 757 mmHg 68%
    13:00 +3°C° 0 mm 5 m/S 757 mmHg 70%
    14:00 +2°C° 0 mm 5 m/S 758 mmHg 72%
    15:00 +3°C° 0 mm 4 m/S 759 mmHg 74%
    16:00 +3°C° 0 mm 3 m/S 759 mmHg 77%
    17:00 +2°C° 0 mm 3 m/S 760 mmHg 80%
    18:00 +3°C° 0 mm 2 m/S 761 mmHg 83%
    19:00 +3°C° 0 mm 2 m/S 761 mmHg 84%
    20:00 +3°C° 0 mm 2 m/S 761 mmHg 85%
    21:00 +3°C° 0 mm 2 m/S 761 mmHg 86%
    22:00 +2°C° 0 mm 3 m/S 761 mmHg 87%
    23:00 +2°C° 0 mm 3 m/S 760 mmHg 89%

    übermorgen, 10 Dezember, Dienstag

    Zeit Temperatur Niederschläge Wind Luftdruck Luftfeuchtigkeit
    00:00 +1°C° 0 mm 4 m/S 760 mmHg 90%
    01:00 +3°C° 0 mm 4 m/S 759 mmHg 90%
    02:00 +3°C° 0 mm 5 m/S 757 mmHg 90%
    03:00 +3°C° 0 mm 5 m/S 756 mmHg 90%
    04:00 +3°C° 0.2 mm 6 m/S 755 mmHg 90%
    05:00 +4°C° 0.2 mm 6 m/S 753 mmHg 90%
    06:00 +4°C° 0.2 mm 7 m/S 752 mmHg 89%
    07:00 +4°C° 0.9 mm 7 m/S 750 mmHg 90%
    08:00 +5°C° 0.9 mm 8 m/S 749 mmHg 91%
    09:00 +5°C° 0.9 mm 8 m/S 747 mmHg 91%
    10:00 +6°C° 0.6 mm 9 m/S 745 mmHg 91%
    11:00 +7°C° 0.6 mm 11 m/S 744 mmHg 90%
    12:00 +9°C° 0.6 mm 12 m/S 742 mmHg 89%
    13:00 +9°C° 1.1 mm 12 m/S 741 mmHg 90%
    14:00 +9°C° 1.1 mm 13 m/S 739 mmHg 91%
    15:00 +10°C° 1.1 mm 13 m/S 738 mmHg 91%
    16:00 +8°C° 2.5 mm 12 m/S 739 mmHg 91%
    17:00 +6°C° 2.5 mm 11 m/S 740 mmHg 91%
    18:00 +3°C° 2.5 mm 10 m/S 741 mmHg 91%
    19:00 +3°C° 0.4 mm 9 m/S 742 mmHg 87%
    20:00 +3°C° 0.4 mm 9 m/S 743 mmHg 83%
    21:00 +2°C° 0.4 mm 9 m/S 744 mmHg 79%
    22:00 +2°C° 0.1 mm 9 m/S 744 mmHg 79%
    23:00 +2°C° 0.1 mm 9 m/S 745 mmHg 79%

    11 Dezember, Mittwoch

    Zeit Temperatur Niederschläge Wind Luftdruck Luftfeuchtigkeit
    00:00 +2°C° 0.1 mm 9 m/S 746 mmHg 79%
    01:00 +2°C° 0.1 mm 8 m/S 746 mmHg 78%
    02:00 +2°C° 0.1 mm 8 m/S 747 mmHg 78%
    03:00 +2°C° 0.1 mm 7 m/S 747 mmHg 77%
    04:00 +2°C° 0.1 mm 7 m/S 747 mmHg 78%
    05:00 +2°C° 0.1 mm 7 m/S 747 mmHg 78%
    06:00 +2°C° 0.1 mm 6 m/S 746 mmHg 79%
    07:00 +2°C° 0.2 mm 7 m/S 746 mmHg 81%
    08:00 +2°C° 0.2 mm 7 m/S 746 mmHg 82%
    09:00 +2°C° 0.2 mm 7 m/S 746 mmHg 84%
    10:00 +2°C° 0.3 mm 8 m/S 745 mmHg 81%
    11:00 +2°C° 0.3 mm 8 m/S 745 mmHg 79%
    12:00 +2°C° 0.3 mm 8 m/S 745 mmHg 76%
    13:00 +3°C° 0.1 mm 7 m/S 745 mmHg 78%
    14:00 +3°C° 0.1 mm 6 m/S 745 mmHg 79%
    15:00 +2°C° 0.1 mm 5 m/S 745 mmHg 80%
    16:00 +2°C° 0.1 mm 5 m/S 745 mmHg 81%
    17:00 +1°C° 0.1 mm 5 m/S 745 mmHg 82%
    18:00 +1°C° 0.1 mm 5 m/S 745 mmHg 82%
    19:00 +1°C° 0.1 mm 5 m/S 746 mmHg 82%
    20:00 +1°C° 0.1 mm 5 m/S 746 mmHg 81%
    21:00 +1°C° 0.1 mm 5 m/S 746 mmHg 81%
    22:00 +1°C° 0.1 mm 5 m/S 746 mmHg 81%
    23:00 +1°C° 0.1 mm 5 m/S 746 mmHg 81%

    12 Dezember, Donnerstag

    Zeit Temperatur Niederschläge Wind Luftdruck Luftfeuchtigkeit
    00:00 +1°C° 0.1 mm 6 m/S 746 mmHg 81%
    01:00 +1°C° 0 mm 5 m/S 746 mmHg 82%
    02:00 +1°C° 0 mm 5 m/S 746 mmHg 83%
    03:00 +1°C° 0 mm 5 m/S 746 mmHg 84%
    04:00 +1°C° 0.1 mm 5 m/S 745 mmHg 88%
    05:00 +1°C° 0.1 mm 5 m/S 745 mmHg 91%
    06:00 +2°C° 0.1 mm 5 m/S 744 mmHg 94%
    07:00 +2°C° 1 mm 6 m/S 743 mmHg 94%
    08:00 +3°C° 1 mm 7 m/S 741 mmHg 94%
    09:00 +3°C° 1 mm 7 m/S 740 mmHg 94%
    10:00 +4°C° 1.8 mm 7 m/S 738 mmHg 94%
    11:00 +4°C° 1.8 mm 7 m/S 736 mmHg 94%
    12:00 +4°C° 1.8 mm 7 m/S 734 mmHg 94%
    13:00 +5°C° 2.5 mm 7 m/S 733 mmHg 94%
    14:00 +5°C° 2.5 mm 7 m/S 732 mmHg 94%
    15:00 +7°C° 2.5 mm 6 m/S 730 mmHg 94%
    16:00 +6°C° 0.8 mm 7 m/S 729 mmHg 92%
    17:00 +6°C° 0.8 mm 8 m/S 729 mmHg 89%
    18:00 +5°C° 0.8 mm 8 m/S 728 mmHg 86%
    19:00 +5°C° 0.3 mm 8 m/S 728 mmHg 88%
    20:00 +5°C° 0.3 mm 9 m/S 727 mmHg 89%
    21:00 +3°C° 0.3 mm 9 m/S 727 mmHg 90%
    22:00 +3°C° 0.5 mm 9 m/S 726 mmHg 89%
    23:00 +3°C° 0.5 mm 10 m/S 726 mmHg 87%

    13 Dezember, Freitag

    Zeit Temperatur Niederschläge Wind Luftdruck Luftfeuchtigkeit
    00:00 +2°C° 0.5 mm 10 m/S 726 mmHg 86%
    01:00 +2°C° 0.5 mm 11 m/S 726 mmHg 82%
    02:00 +2°C° 0.5 mm 11 m/S 726 mmHg 79%
    03:00 +2°C° 0.5 mm 11 m/S 726 mmHg 75%
    04:00 +2°C° 0.1 mm 11 m/S 726 mmHg 75%
    05:00 +2°C° 0.1 mm 12 m/S 726 mmHg 75%
    06:00 +2°C° 0.1 mm 12 m/S 727 mmHg 76%
    07:00 +2°C° 0.1 mm 12 m/S 727 mmHg 75%
    08:00 +2°C° 0.1 mm 11 m/S 728 mmHg 74%
    09:00 +2°C° 0.1 mm 11 m/S 729 mmHg 74%
    10:00 +3°C° 0.1 mm 11 m/S 729 mmHg 75%
    11:00 +3°C° 0.1 mm 11 m/S 730 mmHg 76%
    12:00 +3°C° 0.1 mm 11 m/S 730 mmHg 77%
    13:00 +2°C° 0.1 mm 11 m/S 730 mmHg 76%
    14:00 +2°C° 0.1 mm 10 m/S 730 mmHg 75%
    15:00 +2°C° 0.1 mm 10 m/S 731 mmHg 74%
    16:00 +2°C° 0.1 mm 10 m/S 731 mmHg 73%
    17:00 +1°C° 0.1 mm 10 m/S 731 mmHg 73%
    18:00 +1°C° 0.1 mm 9 m/S 731 mmHg 73%
    19:00 +1°C° 0 mm 9 m/S 731 mmHg 73%
    20:00 +1°C° 0 mm 9 m/S 731 mmHg 74%
    21:00 0°C° 0 mm 8 m/S 731 mmHg 74%
    22:00 0°C° 0.2 mm 9 m/S 732 mmHg 76%
    23:00 0°C° 0.2 mm 9 m/S 732 mmHg 77%
    Mehr zeigen